Location: NJAA Observatory
(40.6819°N, 74.8979°W)
Time: 16:31:14
(UTC-04:00)

Cosmos 2263 Rocket - Visible Passes

Search period start: 30 May 2015 00:00
Search period end: 09 June 2015 00:00
Orbit: 825 x 847 km, 71.0° (Epoch: 30 May)

Date Brightness Start Highest point End Pass type
(mag) Time Alt. Az. Time Alt. Az. Time Alt. Az.
30 May 2.3 21:00:56 10° NNW 21:06:31 83° WSW 21:12:08 10° SSE visible
31 May 4.8 22:31:33 10° W 22:33:06 11° W 22:34:16 10° WSW visible
01 Jun 4.7 22:14:14 10° WNW 22:16:30 12° W 22:18:25 10° WSW visible
02 Jun 4.7 21:57:07 10° WNW 21:59:53 13° W 22:02:19 10° SW visible
03 Jun 4.7 21:40:07 10° WNW 21:43:16 15° W 21:46:08 10° SW visible
04 Jun 4.6 21:23:10 10° WNW 21:26:39 16° W 21:29:53 10° SW visible
05 Jun 4.6 21:06:17 10° WNW 21:10:02 18° W 21:13:34 10° SW visible
